TimeAKST,TemperatureF,Dew PointF,Humidity,Sea Level PressureIn,VisibilityMPH,Wind Direction,Wind SpeedMPH,Gust SpeedMPH,PrecipitationIn,Events,Conditions,WindDirDegrees,DateUTC
12:53 AM,37.0,35.1,93,29.55,7.0,SSW,5.8,-,0.06,Rain,Light Rain,210,2013-01-01 09:53:00
1:00 AM,37.4,33.8,87,29.55,6.0,South,6.9,16.1,0.02,Rain,Rain,190,2013-01-01 10:00:00
1:35 AM,33.8,33.8,100,29.55,2.5,Variable,3.5,-,0.09,Snow,Light Snow,0,2013-01-01 10:35:00
1:48 AM,33.8,32.0,93,29.54,1.8,NE,4.6,-,0.10,Snow,Light Snow,50,2013-01-01 10:48:00
1:53 AM,33.1,32.0,96,29.54,1.5,Calm,Calm,-,0.10,Snow,Light Snow,0,2013-01-01 10:53:00
2:35 AM,33.8,32.0,93,29.51,2.5,NNE,3.5,-,0.02,Snow,Light Snow,30,2013-01-01 11:35:00
3:48 AM,33.8,32.0,93,29.48,4.0,SSE,3.5,-,0.06,Rain,Light Rain,150,2013-01-01 12:48:00
3:53 AM,33.1,33.1,100,29.48,5.0,Calm,Calm,-,0.06,Rain,Light Rain,0,2013-01-01 12:53:00
4:02 AM,33.8,33.8,100,29.47,6.0,Calm,Calm,-,0.01,Rain,Light Rain,0,2013-01-01 13:02:00
4:29 AM,33.8,33.8,100,29.48,4.0,SSW,3.5,-,0.02,Rain,Light Rain,200,2013-01-01 13:29:00
4:43 AM,33.8,33.8,100,29.48,5.0,Calm,Calm,-,0.03,Rain,Light Rain,0,2013-01-01 13:43:00
4:53 AM,34.0,33.1,96,29.48,4.0,SSW,3.5,-,0.04,Rain,Light Rain,200,2013-01-01 13:53:00
5:00 AM,33.8,33.8,100,29.47,4.0,Calm,Calm,-,0.01,Rain,Rain,0,2013-01-01 14:00:00
5:53 AM,34.0,33.1,96,29.46,6.0,Calm,Calm,-,0.07,Rain,Light Rain,0,2013-01-01 14:53:00
6:53 AM,34.0,33.1,96,29.42,6.0,Calm,Calm,-,0.07,Rain,Rain,0,2013-01-01 15:53:00
7:53 AM,34.0,33.1,96,29.42,6.0,Calm,Calm,-,0.06,Rain,Light Rain,0,2013-01-01 16:53:00
8:03 AM,33.8,33.8,100,29.41,5.0,Calm,Calm,-,0.01,Rain,Light Rain,0,2013-01-01 17:03:00
8:23 AM,33.8,32.0,93,29.40,10.0,NNW,3.5,-,0.02,Rain,Light Rain,330,2013-01-01 17:23:00
8:53 AM,34.0,32.0,92,29.39,10.0,Calm,Calm,-,0.02,,Overcast,0,2013-01-01 17:53:00
9:22 AM,33.8,33.8,100,29.40,9.0,WNW,3.5,-,0.01,Rain,Light Rain,300,2013-01-01 18:22:00
9:41 AM,35.6,33.8,93,29.39,10.0,Calm,Calm,-,0.02,Rain,Light Rain,0,2013-01-01 18:41:00
9:53 AM,34.0,33.1,96,29.39,10.0,West,3.5,-,0.02,Rain,Light Rain,270,2013-01-01 18:53:00
10:00 AM,33.8,33.8,100,29.38,10.0,WNW,3.5,-,0.00,Rain,Light Rain,300,2013-01-01 19:00:00
10:28 AM,33.8,33.8,100,29.39,6.0,Calm,Calm,-,0.02,Rain,Light Rain,0,2013-01-01 19:28:00
10:35 AM,33.8,33.8,100,29.38,7.0,Calm,Calm,-,0.02,Rain,Light Rain,0,2013-01-01 19:35:00
10:53 AM,34.0,33.1,96,29.37,9.0,North,3.5,-,0.04,Rain,Light Rain,10,2013-01-01 19:53:00
10:55 AM,33.8,33.8,100,29.37,9.0,Calm,Calm,-,0.00,Rain,Light Rain,0,2013-01-01 19:55:00
11:04 AM,33.8,33.8,100,29.37,10.0,Calm,Calm,-,0.00,,Overcast,0,2013-01-01 20:04:00
11:53 AM,34.0,33.1,96,29.35,2.0,Calm,Calm,-,0.03,Rain,Rain,0,2013-01-01 20:53:00
12:17 PM,33.8,33.8,100,29.34,4.0,Calm,Calm,-,0.02,Rain,Light Rain,0,2013-01-01 21:17:00
12:33 PM,33.8,33.8,100,29.33,5.0,Calm,Calm,-,0.03,Rain,Light Rain,0,2013-01-01 21:33:00
12:53 PM,34.0,33.1,96,29.33,4.0,WNW,3.5,-,0.04,Rain,Light Rain,290,2013-01-01 21:53:00
1:53 PM,34.0,33.1,96,29.31,10.0,NW,3.5,-,0.02,Rain,Light Rain,310,2013-01-01 22:53:00
2:22 PM,33.8,33.8,100,29.30,9.0,Calm,Calm,-,0.01,,Overcast,0,2013-01-01 23:22:00
2:30 PM,33.8,33.8,100,29.30,9.0,Calm,Calm,-,0.01,,Overcast,0,2013-01-01 23:30:00
2:53 PM,34.0,33.1,96,29.29,9.0,West,3.5,-,0.02,,Overcast,270,2013-01-01 23:53:00
3:15 PM,33.8,33.8,100,29.27,8.0,Calm,Calm,-,N/A,,Overcast,0,2013-01-02 00:15:00
3:53 PM,34.0,33.1,96,29.24,5.0,SSE,3.5,-,N/A,,Mostly Cloudy,150,2013-01-02 00:53:00
4:17 PM,35.6,33.8,93,29.23,10.0,SSW,5.8,-,N/A,,Mostly Cloudy,200,2013-01-02 01:17:00
4:53 PM,34.0,33.1,96,29.23,8.0,ENE,6.9,-,N/A,,Mostly Cloudy,70,2013-01-02 01:53:00
5:53 PM,37.9,33.1,83,29.22,10.0,South,21.9,26.5,0.03,,Overcast,190,2013-01-02 02:53:00
6:36 PM,37.4,33.8,87,29.23,10.0,South,9.2,16.1,0.04,,Overcast,190,2013-01-02 03:36:00
6:53 PM,36.0,33.1,89,29.24,6.0,South,15.0,23.0,0.07,Snow,Light Snow,190,2013-01-02 03:53:00
7:08 PM,33.8,33.8,100,29.24,2.5,Variable,4.6,-,0.01,Snow,Light Snow,0,2013-01-02 04:08:00
7:17 PM,35.6,33.8,93,29.24,6.0,South,9.2,-,0.02,Snow,Light Snow,170,2013-01-02 04:17:00
7:36 PM,35.6,33.8,93,29.24,10.0,SSW,3.5,-,0.04,,Overcast,210,2013-01-02 04:36:00
7:53 PM,36.0,33.1,89,29.24,10.0,SSW,5.8,-,0.05,,Overcast,200,2013-01-02 04:53:00
8:19 PM,35.6,33.8,93,29.26,10.0,South,4.6,-,0.01,,Overcast,170,2013-01-02 05:19:00
8:53 PM,36.0,34.0,93,29.27,10.0,ESE,5.8,-,0.03,,Overcast,120,2013-01-02 05:53:00
9:23 PM,35.6,35.6,100,29.28,10.0,Variable,5.8,-,0.01,Rain,Light Rain,0,2013-01-02 06:23:00
9:36 PM,35.6,35.6,100,29.28,10.0,North,-9999.0,-,0.02,,Overcast,0,2013-01-02 06:36:00
9:53 PM,35.1,35.1,100,29.28,10.0,North,-9999.0,-,0.02,Rain,Light Rain,0,2013-01-02 06:53:00
10:53 PM,36.0,36.0,100,29.31,6.0,South,18.4,28.8,0.08,Rain,Rain,190,2013-01-02 07:53:00
11:53 PM,36.0,34.0,93,29.34,7.0,SSE,19.6,27.6,0.05,Rain,Light Rain,160,2013-01-02 08:53:00